RH
11 11 12 12 13 15 18 20 18 18 17 14 13 13 11 10 9 8 7 7 8 11 16 17 16 14 12 15 69 100 100 99 97 97 99 99 100 90
12 13 15 18 21 22 20 15 11 10 13 15 14 12 10 9 9 10 14 17 16 20 22 23 25 27 67 74 92 96 100 100 100 100 100 100 98 99
15 18 20 20 19 17 15 14 14 13 12 14 13 11 8 7 10 24 50 39 33 25 27 25 26 29 26 36 66 86 64 86 99 100 100 100 89 94
18 20 20 21 21 20 18 16 14 12 11 9 9 7 7 8 14 31 51 52 57 42 33 28 26 26 27 32 37 48 47 63 94 69 90 100 100 100
21 23 25 24 21 18 16 14 12 10 11 18 10 10 14 26 40 39 42 51 46 41 38 39 37 33 32 29 28 29 31 46 81 82 68 60 85 94
25 26 22 19 18 15 13 12 12 13 20 31 26 34 62 63 68 68 43 42 39 37 42 60 65 65 62 57 45 28 22 17 15 14 13 13 14 43
24 20 19 17 12 11 13 15 21 30 46 67 71 98 100 64 55 46 45 52 67 67 72 71 78 77 71 74 74 68 58 38 26 26 27 30 30 29
21 20 14 9 8 10 15 23 38 71 75 100 100 80 54 46 49 71 80 82 73 68 86 71 85 76 74 78 76 72 72 70 70 68 55 53 83 100
18 11 8 8 11 14 23 35 52 93 94 81 63 47 46 75 92 94 91 83 71 75 97 76 79 74 83 88 86 84 84 77 73 71 75 72 64 68
10 8 9 13 20 32 41 56 80 49 55 48 47 67 96 99 100 100 89 92 82 88 99 88 79 80 86 88 99 99 94 95 91 86 81 77 77 75
8 9 15 24 36 48 72 56 46 44 42 52 84 97 98 99 100 97 93 93 77 72 96 90 78 80 83 93 99 100 100 100 98 96 95 97 96 96
7 11 22 37 45 52 55 51 45 44 60 78 86 94 100 100 99 99 97 94 88 69 92 93 86 96 84 87 96 99 96 94 94 92 90 94 90 97
11 18 33 45 50 53 53 48 55 86 85 86 89 96 96 96 96 98 100 97 92 86 99 99 94 97 99 88 94 98 96 97 97 96 95 96 98 97
20 30 42 51 53 51 48 69 96 91 90 88 92 93 90 93 94 97 97 98 99 98 97 99 95 98 96 92 95 100 97 97 96 96 96 96 97 99
29 38 49 52 50 48 80 100 96 93 90 88 88 92 96 93 87 82 97 96 97 97 97 97 97 97 98 99 97 92 91 96 97 97 97 99 99 93
33 43 51 52 50 82 97 95 93 91 94 93 91 92 89 79 69 69 72 64 82 95 97 96 97 96 98 100 100 96 96 96 98 97 98 98 89 90
40 46 50 47 77 88 92 90 81 96 93 92 92 91 90 86 73 72 66 66 80 94 94 97 98 97 97 96 96 94 95 97 96 96 98 98 61 38
44 51 48 70 88 90 76 76 96 93 93 94 97 97 92 92 79 81 95 84 69 92 93 95 96 98 98 93 91 95 98 94 92 97 100 97 25 6
52 52 63 89 90 80 82 97 93 95 97 98 96 95 96 95 96 94 87 94 80 93 96 96 96 97 95 93 93 98 97 97 96 97 100 96 48 23
50 54 89 92 85 81 97 95 94 96 96 94 93 93 93 93 93 90 81 82 81 94 97 96 96 94 94 96 95 95 96 96 96 96 98 98 97 100
47 82 94 88 79 96 96 97 98 99 97 98 99 100 100 93 91 91 76 84 94 91 96 96 93 91 98 97 98 97 96 97 96 95 95 96 96 99
56 92 92 81 96 96 96 98 99 98 98 99 99 99 100 100 91 84 84 95 88 81 95 96 93 96 97 95 95 97 97 97 97 97 96 96 96 92
78 93 77 95 96 96 96 97 98 99 99 98 99 100 99 100 100 97 99 100 97 97 94 96 96 96 95 96 96 96 97 96 96 90 95 96 96 96
Wind_Speed
46 48 51 53 54 55 56 58 62 69 69 62 60 58 61 62 60 59 60 58 55 53 51 51 51 52 53 53 50 44 48 45 47 50 55 57 53 54
49 51 52 54 55 55 55 56 57 61 68 61 61 63 65 63 60 59 56 54 52 49 48 47 48 47 43 41 42 45 44 46 51 49 47 47 46 50
50 51 52 54 54 54 55 56 57 58 64 65 64 64 65 64 62 57 54 54 50 46 46 44 46 49 49 49 50 52 53 51 50 48 49 49 48 46
51 52 53 54 54 54 56 58 59 59 61 65 65 65 62 60 58 56 55 55 54 51 46 41 40 40 41 44 45 46 48 48 48 49 47 46 46 48
51 52 53 55 57 58 60 60 60 59 57 57 62 59 57 54 54 53 54 56 51 45 42 41 40 41 42 42 43 43 44 45 44 43 45 47 43 42
52 52 54 56 60 61 61 59 57 56 54 52 54 54 52 51 53 59 55 49 46 43 42 40 40 41 40 41 42 43 44 45 45 45 45 44 45 46
51 54 57 60 60 59 56 56 53 51 48 47 47 48 53 58 54 49 49 49 47 45 46 40 41 39 37 38 39 41 44 46 46 45 43 42 40 40
56 59 60 60 59 56 52 50 45 41 43 41 48 54 52 46 44 46 49 50 50 40 45 40 38 38 35 36 36 38 40 42 45 47 45 44 40 39
59 60 59 55 51 51 49 46 41 40 45 48 48 43 43 42 45 45 44 45 45 41 44 41 34 36 34 34 33 33 33 35 39 44 49 49 49 47
58 56 52 48 48 47 46 44 44 44 38 38 38 39 40 39 38 41 43 44 42 37 37 43 36 35 33 30 28 29 30 31 33 35 41 47 52 52
55 49 47 47 44 42 42 45 43 37 33 33 34 33 31 33 34 38 39 42 41 35 30 40 38 41 39 32 24 20 24 28 30 31 32 32 32 40
50 46 45 42 41 40 41 41 37 35 36 37 31 28 30 30 29 31 35 39 41 39 33 42 42 43 46 32 26 19 23 26 31 33 34 33 35 35
47 46 42 40 39 38 35 33 34 37 38 32 32 30 28 28 29 29 30 33 37 39 35 38 41 41 38 34 20 18 21 20 22 24 27 26 27 30
46 43 40 39 38 34 31 32 34 34 31 30 30 27 27 28 29 29 27 29 30 33 34 33 38 35 31 23 18 14 17 18 21 18 15 16 18 22
43 38 38 37 34 30 29 32 30 28 28 28 28 28 30 33 31 28 26 29 28 28 30 29 28 24 21 19 22 21 22 15 17 15 10 8 10 17
40 36 36 33 29 29 29 25 24 26 28 28 29 31 34 33 28 28 28 26 28 29 24 25 21 19 17 20 22 20 21 28 26 21 6 0 11 14
37 35 33 29 27 26 22 22 23 24 25 27 30 33 31 30 28 26 25 24 26 31 25 19 17 16 18 20 20 26 29 26 24 19 16 10 12 15
34 34 30 28 28 26 23 22 22 23 26 29 31 33 30 29 27 24 23 22 23 25 24 20 16 14 17 22 30 29 29 29 26 19 19 17 17 17
33 30 27 27 25 23 23 23 24 25 28 30 31 31 28 26 24 22 22 23 19 21 21 18 15 16 20 26 27 27 26 23 19 14 18 14 23 22
29 26 26 25 23 23 23 24 25 26 27 28 28 27 25 25 23 21 22 23 20 18 15 14 15 18 22 23 26 26 23 27 25 20 19 17 22 24
25 24 25 23 22 22 23 24 25 26 26 26 25 26 26 24 22 21 20 21 18 14 12 11 14 17 16 15 20 22 23 20 21 28 25 22 24 30
24 24 22 21 21 22 23 24 25 25 25 24 22 25 25 23 22 20 19 19 15 13 10 10 12 12 10 11 17 19 20 22 21 22 26 29 29 30
24 22 20 21 22 23 24 25 26 26 25 22 23 24 23 21 20 18 17 16 13 11 8 8 9 10 10 9 11 14 15 18 23 29 34 33 33 33
Wind_Direction
312 312 311 310 308 307 305 302 301 302 302 304 305 305 303 302 302 301 299 297 295 292 289 285 279 274 272 272 272 272 268 266 259 255 251 246 249 256
314 312 311 310 308 306 304 301 300 299 299 304 305 305 304 305 303 301 300 298 295 292 287 283 279 277 277 276 273 271 267 261 258 259 265 265 263 261
314 313 312 311 310 307 304 302 301 302 302 304 303 303 301 302 302 304 305 304 303 297 291 287 283 278 275 271 261 264 267 266 267 265 262 257 253 256
315 314 313 311 309 307 305 305 304 304 304 305 305 304 303 302 302 302 306 309 308 302 300 295 289 286 281 275 271 270 266 266 265 263 261 257 258 251
316 315 313 311 310 308 307 306 305 307 307 306 306 305 305 306 306 306 308 309 306 307 301 296 294 288 284 282 278 275 273 270 269 266 263 260 257 256
316 315 313 312 310 309 309 310 309 309 308 306 307 311 312 308 308 309 308 305 305 303 299 300 295 289 284 280 275 270 267 266 265 264 264 262 258 253
316 315 314 311 311 312 313 312 312 311 309 310 312 314 303 308 309 309 306 307 307 312 313 308 303 303 295 287 279 269 264 262 261 260 259 259 257 254
318 316 314 314 314 314 312 313 314 314 317 319 295 302 305 311 311 311 313 315 313 318 315 312 312 303 305 297 290 284 275 266 260 257 255 251 252 252
318 317 316 316 315 313 315 316 316 316 306 308 304 311 313 318 317 316 315 315 316 322 315 313 313 308 310 305 298 291 282 272 262 256 252 247 246 246
319 317 318 318 318 320 320 319 311 318 313 310 316 319 318 318 317 317 317 315 319 325 323 315 322 319 318 313 305 289 279 274 270 262 255 249 246 242
320 321 321 322 322 323 317 315 319 320 318 318 320 321 321 323 320 315 317 317 325 333 336 316 325 321 320 320 315 291 280 274 271 266 258 253 253 249
323 323 324 323 323 321 319 319 321 323 326 330 331 330 326 322 321 319 319 320 323 330 337 319 322 324 323 327 324 312 281 274 273 271 268 262 246 235
325 326 326 326 326 325 324 326 327 328 329 331 332 331 330 332 332 329 328 325 325 326 331 323 324 326 322 326 340 314 304 300 291 285 280 271 256 245
327 329 328 329 329 330 330 329 328 327 330 330 329 334 338 341 340 339 337 335 333 327 330 327 326 330 329 343 344 334 334 324 309 307 292 274 252 236
328 331 329 331 332 332 330 329 328 328 328 331 338 340 338 336 332 332 336 338 345 341 335 334 335 342 348 353 3 359 351 352 339 327 298 272 233 211
331 333 332 333 333 330 328 329 329 331 336 338 339 339 336 336 337 335 338 338 348 354 350 347 354 6 11 3 3 5 6 7 19 22 61 269 184 179
330 332 333 334 333 332 336 336 334 336 340 340 338 338 339 341 346 341 343 346 351 355 5 10 12 24 26 24 25 19 16 21 28 19 57 35 164 154
333 335 335 335 336 339 341 342 342 343 343 341 340 339 343 348 348 352 355 359 357 1 11 17 24 38 35 31 35 27 20 28 34 35 69 73 108 128
335 334 335 336 339 342 342 346 348 347 345 343 341 342 346 349 350 354 2 9 5 10 19 25 35 43 44 40 42 36 30 33 40 60 87 108 106 116
334 335 338 339 343 345 349 350 349 346 344 343 347 350 349 350 353 355 1 8 11 15 27 39 49 48 44 40 46 46 44 46 52 70 93 118 116 116
339 341 339 342 346 349 350 350 347 344 346 349 352 356 353 350 350 351 358 4 7 15 30 48 54 47 39 42 55 54 52 52 53 60 73 97 116 126
342 342 343 345 349 350 350 348 347 347 349 351 352 352 350 352 353 352 358 5 7 20 33 51 60 46 40 57 62 59 60 65 68 73 72 78 99 105
343 346 345 348 351 349 348 348 349 353 354 354 352 353 353 356 357 356 359 2 11 24 35 54 67 56 49 61 72 74 75 79 85 89 87 85 85 88